Location: Exeidioux
(45.6312°N, 1.6819°E)
Time: 16:26:07
(UTC+00:00)

H-2A R/B - Pass Details

Date: 03 March 2021
Orbit: 732 x 837 km, 98.2° (Epoch: 11 April)

Event Time Altitude Azimuth Distance (km) Brightness Sun altitude
Rises 18:00:36 0° 150° (SSE) 3,366 5.1 -3.9°
Reaches altitude 10° 18:02:59 10° 146° (SSE) 2,442 4.3 -4.3°
Maximum altitude 18:08:16 54° 71° (ENE) 1,011 2.3 -5.2°
Drops below altitude 10° 18:13:34 10° 355° (N) 2,455 4.7 -6.1°
Sets 18:15:58 0° 351° (N) 3,386 5.4 -6.6°
